WetterOnline ( https://www.wetteronline.de )

Wetter aktuell Betzdorf

Aktuelles Wetter: Bad Marienberg (555m)

6-stündlich | Neueste Meldungen
Ortszeit Temperatur Wetter
So, 17.10. 20:00 7.1° C bedeckt
So, 17.10. 14:00 10.8° C wolkig
So, 17.10. 8:00 6.4° C wolkig
So, 17.10. 2:00 7.5° C bedeckt
Sa, 16.10. 20:00 6.5° C wolkig
Sa, 16.10. 14:00 9.0° C bedeckt
Sa, 16.10. 8:00 4.5° C leicht bewölkt
Sa, 16.10. 2:00 4.6° C wolkenlos
Ortszeit Temperatur Wetter
So, 17.10. 22:00 7.1° C bedeckt
So, 17.10. 21:50 7.1° C bedeckt
So, 17.10. 21:40 7.7° C bedeckt
So, 17.10. 21:30 7.6° C bedeckt
So, 17.10. 21:20 7.6° C bedeckt
So, 17.10. 21:10 7.5° C bedeckt
So, 17.10. 21:00 7.3° C bedeckt
So, 17.10. 20:30 7.2° C bedeckt
So, 17.10. 20:00 7.1° C bedeckt
So, 17.10. 19:30 7.2° C bedeckt
So, 17.10. 19:00 7.8° C bedeckt
Ortszeit Relative Feuchte Sichtweite
So, 17.10. 20:00 77% 60 km
So, 17.10. 14:00 57% >70 km
So, 17.10. 8:00 67% 55 km
So, 17.10. 2:00 70% 60 km
Sa, 16.10. 20:00 86% 40 km
Sa, 16.10. 14:00 77% 28 km
Sa, 16.10. 8:00 87% 29 km
Sa, 16.10. 2:00 98% 26 km
Ortszeit Relative Feuchte Sichtweite
So, 17.10. 22:00 76% 50 km
So, 17.10. 21:50 76% -
So, 17.10. 21:40 72% -
So, 17.10. 21:30 73% 60 km
So, 17.10. 21:20 73% -
So, 17.10. 21:10 74% -
So, 17.10. 21:00 75% 45 km
So, 17.10. 20:30 77% 50 km
So, 17.10. 20:00 77% 60 km
So, 17.10. 19:30 76% 65 km
So, 17.10. 19:00 72% 45 km
Ortszeit Niederschlagsmenge Niederschlagsart
So, 17.10. 20:00 0.0 l/m2 in 12 Std. -
So, 17.10. 14:00 0.0 l/m2 in 6 Std. -
So, 17.10. 8:00 0.0 l/m2 in 12 Std. -
So, 17.10. 2:00 0.0 l/m2 in 6 Std. -
Sa, 16.10. 20:00 0.0 l/m2 in 12 Std. -
Sa, 16.10. 14:00 0.0 l/m2 in 6 Std. -
Sa, 16.10. 8:00 0.1 l/m2 in 12 Std. -
Sa, 16.10. 2:00 0.1 l/m2 in 6 Std. Regen
Ortszeit Niederschlagsmenge Niederschlagsart
So, 17.10. 22:00 0.0 l/m2 in 1 Std. -
So, 17.10. 21:50 keine Meldung -
So, 17.10. 21:40 keine Meldung -
So, 17.10. 21:30 0.0 l/m2 in 1 Std. -
So, 17.10. 21:20 keine Meldung -
So, 17.10. 21:10 keine Meldung -
So, 17.10. 21:00 0.0 l/m2 in 1 Std. -
So, 17.10. 20:30 0.0 l/m2 in 1 Std. -
So, 17.10. 20:00 0.0 l/m2 in 1 Std. -
So, 17.10. 19:30 0.0 l/m2 in 1 Std. -
So, 17.10. 19:00 0.0 l/m2 in 1 Std. -
Ortszeit Stärke Spitze Richtung
km/h Bft. km/h Grad Sektor
So, 17.10. 20:00 0 0 14 - -
So, 17.10. 14:00 11 2 18 110° O
So, 17.10. 8:00 6 1 9 360° N
So, 17.10. 2:00 4 1 11 300° NW
Sa, 16.10. 20:00 0 0 11 - -
Sa, 16.10. 14:00 7 2 14 290° W
Sa, 16.10. 8:00 7 2 11 350° N
Sa, 16.10. 2:00 4 1 18 130° SO
Ortszeit Stärke Spitze Richtung
km/h Bft. km/h Grad Sektor
So, 17.10. 22:00 4 1 7 230° SW
So, 17.10. 21:50 4 1 - 230° SW
So, 17.10. 21:40 4 1 - 330° NW
So, 17.10. 21:30 4 1 7 320° NW
So, 17.10. 21:20 4 1 - 320° NW
So, 17.10. 21:10 4 1 - 330° NW
So, 17.10. 21:00 4 1 7 310° NW
So, 17.10. 20:30 4 1 7 310° NW
So, 17.10. 20:00 0 0 7 - -
So, 17.10. 19:30 4 1 7 280° W
So, 17.10. 19:00 6 1 7 310° NW
Ortszeit Untergrenze Bedeckung Gattung
total tief tief mittel hoch
So, 17.10. 20:00 5400 m 8/8 8/8 - - -
So, 17.10. 14:00 1260 m 7/8 6/8 - - -
So, 17.10. 8:00 10500 m 8/8 0/8 - - -
So, 17.10. 2:00 1020 m 8/8 8/8 - - -
Sa, 16.10. 20:00 1020 m 7/8 5/8 - - -
Sa, 16.10. 14:00 840 m 8/8 8/8 - - -
Sa, 16.10. 8:00 9000 m 6/8 0/8 - - -
Sa, 16.10. 2:00 1290 m 0/8 0/8 - - -
Ortszeit Bedeckungsgrad in Achtel und Wolkenuntergrenze
So, 17.10. 22:00 6(3000m) 8(4200m) 8(4800m)
So, 17.10. 21:50 6(3000m) 8(4200m) 8(4800m)
So, 17.10. 21:40 5(3000m) 8(4200m)
So, 17.10. 21:30 8(4500m) 8(4200m)
So, 17.10. 21:20 8(4500m)
So, 17.10. 21:10 8(4500m)
So, 17.10. 21:00 8(4800m)
So, 17.10. 20:30 8(5100m) 8(9000m) 8(9000m)
So, 17.10. 20:00 7(5400m) 8(6000m) 8(8100m)
So, 17.10. 19:30 8(5700m) 8(7200m) 8(7800m)
So, 17.10. 19:00 8(5700m) 8(8100m) 8(9000m)
Ortszeit Luftdruck NN (hPa) Tendenz (hPa in 3 Std.)
So, 17.10. 20:00 1022 + 0,8
So, 17.10. 14:00 1021 - 0,3
So, 17.10. 8:00 1021 + 0,1
So, 17.10. 2:00 1022 - 0,4
Sa, 16.10. 20:00 1022 0,0
Sa, 16.10. 14:00 1022 - 0,3
Sa, 16.10. 8:00 1023 + 0,4
Sa, 16.10. 2:00 1023 + 0,5
Ortszeit Luftdruck NN (hPa) Tendenz (hPa in 3 Std.)
So, 17.10. 22:00 1023 + 1,0
So, 17.10. 21:50 1023 keine Meldung
So, 17.10. 21:40 1023 keine Meldung
So, 17.10. 21:30 1023 + 1,1
So, 17.10. 21:20 1023 keine Meldung
So, 17.10. 21:10 1023 keine Meldung
So, 17.10. 21:00 1023 + 1,1
So, 17.10. 20:30 1022 + 1,1
So, 17.10. 20:00 1022 + 0,8
So, 17.10. 19:30 1022 + 0,8
So, 17.10. 19:00 1022 + 0,6
Ortszeit Schneehöhe (cm)
So, 17.10. 20:00 0
So, 17.10. 14:00 0
So, 17.10. 8:00 0
So, 17.10. 2:00 0
Sa, 16.10. 20:00 0
Sa, 16.10. 14:00 0
Sa, 16.10. 8:00 0
Sa, 16.10. 2:00 0
Ortszeit Schneehöhe (cm)
So, 17.10. 22:00 0
So, 17.10. 21:50 0
So, 17.10. 21:40 0
So, 17.10. 21:30 0
So, 17.10. 21:20 0
So, 17.10. 21:10 0
So, 17.10. 21:00 0
So, 17.10. 20:30 0
So, 17.10. 20:00 0
So, 17.10. 19:30 0
So, 17.10. 19:00 0
Link zu dieser Seite / Seite empfehlen

Das Wetter in ...